Dewpoint
-17 -17 -17 -18 -19 -18 -15 -14 -14 -15 -15 -15 -16 -16 -3 -4 -4 -4 -4 -4 -4 -4 -3 -3 -2 -1 3 5 12 14 12 12 12 13 13 12 12 13 14 13 12 11 11 12
-14 -13 -15 -15 -15 -14 -15 -14 -13 -14 -15 -14 -15 -14 -3 -4 -5 -5 -4 -3 -4 -3 -3 -3 -2 -1 1 5 9 13 14 14 11 11 12 11 11 12 13 13 12 12 12 11
-12 -14 -16 -15 -14 -14 -14 -13 -13 -13 -14 -14 -15 -11 -3 -5 -5 -5 -5 -4 -3 -3 -3 -3 -2 -1 1 3 7 10 13 14 14 12 14 14 13 13 12 13 13 13 12 11
-13 -15 -16 -14 -14 -15 -13 -15 -14 -14 -12 -10 -14 -10 -3 -5 -5 -6 -5 -5 -3 -3 -4 -3 -2 -1 0 1 4 8 11 13 14 14 14 12 12 12 11 13 13 13 12 11
-12 -15 -15 -14 -15 -15 -15 -15 -13 -13 -12 -12 -5 -9 -4 -6 -4 -4 -5 -4 -4 -3 -4 -3 -3 -2 -1 -0 2 5 9 11 13 14 14 14 13 11 12 12 13 13 12 11
-13 -17 -15 -17 -14 -14 -11 -12 -13 -12 -12 -7 -1 -1 -2 -3 -2 -5 -5 -4 -5 -4 -3 -4 -3 -2 -1 -1 0 3 5 9 11 13 13 14 14 14 13 12 13 12 12 12
-12 -14 -16 -17 -14 -9 -8 -6 -6 -7 -6 -7 -4 -4 -2 -4 -3 -3 -4 -4 -5 -5 -4 -3 -3 -2 -2 -1 -0 1 3 6 9 11 12 13 14 14 11 11 10 11 12 12
-10 -11 -13 -17 -15 -8 -7 -3 -2 -2 -7 -1 -3 -3 -2 -5 -5 -4 -5 -6 -6 -5 -5 -4 -3 -3 -2 -2 -1 0 2 3 8 10 11 12 13 13 11 10 5 11 11 12
-8 -10 -15 -16 -16 -13 -8 -3 -5 -1 -4 -3 -3 -3 -7 -9 -8 -6 -5 -6 -5 -6 -6 -4 -4 -3 -3 -3 -2 -1 -0 2 5 8 10 12 12 13 13 10 11 11 11 12
-12 -10 -14 -16 -17 -15 -8 -8 -3 -1 -0 -2 -3 -5 -4 -5 -6 -7 -6 -6 -6 -8 -7 -6 -5 -4 -4 -3 -2 -2 -1 1 2 5 8 10 11 12 13 12 11 11 11 12
-12 -9 -14 -18 -11 -6 -8 -6 -3 -2 -3 -1 -4 -4 -6 -4 -6 -8 -8 -10 -10 -11 -9 -8 -7 -5 -4 -3 -3 -2 -1 -0 1 2 5 9 10 11 12 13 12 10 10 10
-12 -10 -12 -16 -8 -10 -9 -7 -5 -3 -6 -5 -7 -7 -10 -6 -7 -9 -10 -11 -10 -11 -12 -11 -10 -7 -4 -4 -4 -3 -2 -1 1 2 4 7 10 11 11 12 13 11 11 10
-14 -12 -10 -10 -13 -9 -9 -9 -8 -7 -8 -8 -7 -8 -13 -11 -8 -8 -9 -11 -12 -11 -12 -14 -12 -10 -7 -6 -4 -3 -3 -2 -1 1 3 5 8 10 11 12 12 12 12 11
-17 -13 -10 -7 -4 -8 -8 -8 -9 -9 -7 -8 -7 -8 -10 -10 -10 -10 -10 -13 -11 -12 -13 -14 -15 -13 -10 -8 -6 -4 -4 -3 -1 -1 1 3 5 8 10 11 12 12 12 12
-16 -14 -7 -7 -6 -8 -6 -7 -8 -9 -12 -10 -10 -9 -10 -10 -10 -11 -12 -12 -10 -11 -15 -16 -16 -15 -13 -12 -10 -7 -5 -4 -3 -2 -1 1 2 5 8 10 11 12 11 12
-16 -15 -8 -9 -4 -5 -7 -7 -8 -8 -11 -11 -10 -9 -9 -11 -11 -11 -13 -12 -11 -11 -12 -16 -16 -16 -16 -14 -13 -11 -7 -4 -4 -3 -2 -1 2 3 5 8 9 11 12 11
-16 -14 -12 -10 -5 -7 -10 -6 -6 -7 -9 -12 -11 -12 -12 -11 -11 -12 -14 -12 -12 -14 -14 -14 -15 -16 -15 -16 -13 -13 -10 -8 -4 -4 -2 -2 -1 0 3 6 8 8 11 12
-16 -15 -12 -10 -7 -8 -11 -9 -8 -9 -11 -10 -10 -13 -12 -12 -13 -14 -14 -13 -14 -14 -15 -15 -15 -15 -14 -16 -14 -14 -12 -11 -7 -4 -3 -2 -2 -2 -0 4 6 7 6 9
-16 -14 -10 -10 -8 -10 -13 -16 -11 -8 -8 -13 -11 -12 -14 -14 -13 -14 -15 -14 -15 -16 -16 -16 -14 -13 -13 -13 -15 -14 -14 -12 -12 -6 -3 -3 -2 -2 -2 1 5 6 9 10
-16 -13 -10 -8 -7 -7 -11 -17 -17 -10 -7 -15 -14 -13 -13 -13 -10 -12 -15 -15 -15 -17 -16 -14 -13 -13 -12 -12 -14 -14 -13 -13 -12 -11 -4 -3 -3 -3 -3 -2 2 7 8 10
-11 -13 -10 -8 -10 -10 -13 -16 -15 -11 -11 -15 -15 -15 -14 -12 -14 -15 -15 -16 -17 -17 -13 -14 -12 -11 -11 -11 -12 -13 -13 -13 -12 -13 -7 -4 -3 -3 -2 -2 0 4 7 9
-11 -11 -10 -9 -13 -13 -13 -14 -11 -12 -15 -15 -16 -16 -15 -15 -15 -15 -15 -17 -17 -15 -14 -13 -12 -11 -11 -11 -12 -12 -12 -13 -12 -12 -10 -6 -4 -3 -3 -2 -1 1 4 6
-8 -10 -8 -10 -11 -13 -14 -15 -16 -16 -15 -16 -16 -14 -15 -15 -15 -15 -16 -16 -15 -14 -13 -13 -11 -11 -10 -10 -10 -10 -10 -12 -12 -13 -12 -7 -5 -4 -3 -3 -3 -2 -0 1
-10 -11 -10 -8 -10 -8 -8 -12 -15 -15 -15 -16 -15 -15 -16 -16 -15 -15 -16 -16 -15 -13 -12 -11 -10 -10 -10 -10 -9 -9 -9 -10 -10 -11 -12 -13 -7 -6 -4 -3 -3 -3 -2 -2
-9 -11 -9 -8 -10 -11 -12 -15 -16 -16 -16 -15 -15 -15 -15 -15 -15 -15 -16 -16 -14 -12 -12 -11 -10 -10 -11 -10 -10 -9 -9 -9 -9 -10 -10 -12 -11 -9 -6 -3 -3 -3 -3 -2
-13 -11 -9 -11 -16 -15 -14 -15 -15 -15 -15 -15 -15 -15 -15 -15 -15 -16 -16 -14 -12 -12 -11 -11 -10 -11 -11 -11 -11 -11 -9 -9 -9 -9 -9 -10 -11 -11 -9 -3 -3 -3 -3 -3
Wind_Speed
10 10 7 8 5 3 4 5 6 6 8 8 7 7 14 24 33 33 34 36 41 42 42 41 36 32 28 11 10 37 45 44 41 40 39 36 36 37 39 50 49 46 42 38
7 14 16 10 20 12 7 5 6 7 12 7 4 6 15 22 24 28 32 37 42 47 52 50 41 33 30 26 2 25 30 46 46 43 44 40 40 39 41 50 52 44 39 42
4 10 21 17 21 22 10 15 17 14 15 5 3 4 13 15 25 33 35 35 37 41 45 47 48 37 32 30 17 6 27 30 49 47 43 39 39 38 37 47 51 48 47 44
6 18 16 11 20 20 15 18 20 16 9 3 6 4 14 16 18 25 35 39 39 43 41 41 43 43 35 32 27 14 9 32 30 43 42 46 46 47 44 46 51 43 48 44
7 15 17 16 19 19 15 21 19 15 12 4 0 3 8 14 17 21 30 35 38 37 38 38 38 39 39 34 30 22 7 13 28 27 43 46 47 46 47 45 45 46 48 49
6 12 7 12 20 20 21 19 17 10 5 4 5 4 9 9 15 20 28 33 36 38 36 35 37 39 40 36 31 25 19 2 15 31 29 45 48 46 45 43 43 46 52 48
4 3 11 20 18 15 25 14 4 4 4 3 12 13 6 14 16 19 24 31 35 36 38 40 40 43 46 41 39 29 25 16 4 21 27 31 42 43 48 47 43 41 55 53
6 15 17 15 17 14 17 10 3 4 4 5 11 6 4 13 21 21 24 29 34 38 40 41 38 40 43 44 41 33 27 24 8 7 16 18 30 38 41 41 37 57 54 60
6 8 13 13 20 9 14 12 16 6 8 1 4 4 7 19 20 26 27 32 35 37 40 42 43 39 43 43 41 37 34 24 17 8 9 23 25 32 42 44 47 51 52 56
4 7 8 22 11 13 12 11 5 3 3 6 3 4 7 16 18 19 23 28 32 37 38 43 45 39 41 43 43 39 33 28 21 14 8 14 19 29 35 44 47 48 51 55
2 2 13 12 5 15 11 8 5 0 4 3 3 2 10 7 11 14 20 26 28 32 33 34 40 42 36 37 42 45 36 32 23 18 11 10 18 29 32 40 46 45 45 49
3 1 8 4 9 9 13 11 8 3 6 5 3 2 7 9 12 16 20 26 27 27 29 33 32 36 38 35 42 44 42 35 30 22 17 10 14 21 34 42 42 47 49 46
5 4 5 6 2 8 9 15 10 5 4 8 3 4 11 13 14 17 20 28 31 31 33 35 37 41 41 44 39 47 47 39 33 28 24 14 7 15 23 36 50 44 48 47
5 0 4 3 1 5 5 15 15 5 3 2 2 5 8 12 12 23 27 34 32 31 35 39 41 43 42 44 48 46 49 45 39 35 28 23 16 10 21 15 41 50 50 51
3 1 2 6 9 5 1 8 11 10 3 4 6 3 8 10 11 23 28 31 33 36 38 39 42 42 39 43 47 51 50 50 47 43 38 29 26 17 16 21 21 50 50 54
4 2 4 7 3 4 7 7 9 7 3 3 4 6 7 20 22 25 32 35 34 38 41 40 41 42 45 47 47 54 53 50 50 49 47 41 28 25 20 19 28 24 48 51
2 2 3 2 5 3 5 1 2 5 1 3 3 7 9 11 21 27 32 33 36 39 41 41 38 36 37 39 41 47 51 50 47 49 49 48 39 32 24 20 25 30 25 53
1 3 1 4 4 2 4 3 7 7 6 4 3 6 13 17 21 24 29 32 35 36 39 40 41 34 40 39 39 41 44 48 49 47 48 48 48 42 30 20 24 27 33 28
2 2 2 1 2 3 1 3 5 5 4 4 3 9 15 20 16 20 29 31 32 32 33 36 33 34 40 37 36 38 41 42 48 48 47 47 45 45 39 23 16 27 25 33
4 3 3 2 1 3 5 3 3 8 1 7 7 9 13 17 9 5 31 31 30 30 32 31 35 35 34 34 33 35 34 40 42 46 45 45 44 42 38 32 14 12 24 24
4 2 1 2 2 6 4 1 4 2 5 11 12 13 13 5 18 27 27 28 27 30 27 34 31 32 31 30 33 33 33 34 35 39 41 42 43 40 47 40 25 7 4 16
2 3 2 2 3 4 3 1 5 8 10 9 12 14 16 22 23 24 23 23 26 26 31 31 29 28 28 27 29 31 32 30 30 34 37 40 39 37 38 43 39 25 8 4
3 2 3 5 5 4 6 5 5 4 4 12 9 16 21 22 23 22 20 24 24 25 29 29 27 27 27 28 26 29 32 26 29 32 33 35 38 36 35 37 42 40 30 22
5 15 1 4 5 6 15 7 9 1 7 11 12 17 17 20 21 18 23 22 24 25 27 26 26 25 26 27 26 25 24 25 27 29 30 29 33 40 37 33 36 37 36 33
7 3 3 4 11 11 5 6 2 7 8 13 16 16 18 19 18 19 22 23 25 25 27 24 24 24 27 25 24 23 23 23 24 25 29 28 27 31 36 33 27 30 34 33
4 4 1 4 13 10 8 3 3 9 11 13 18 18 20 18 17 22 22 22 22 28 25 26 24 29 29 26 26 25 22 21 23 25 25 26 26 26 29 32 28 21 26 30
Wind_Direction
1 58 17 328 295 307 348 345 324 352 6 342 347 344 57 38 32 19 14 15 12 7 357 354 351 1 12 40 196 213 211 205 201 201 200 201 204 206 212 197 195 198 191 188
16 37 347 323 25 4 11 13 342 309 342 330 328 337 62 42 31 21 13 12 9 4 1 359 355 359 11 12 78 197 207 214 206 206 207 206 203 204 210 203 203 207 200 195
65 16 12 43 23 4 340 17 346 319 330 266 334 75 58 23 25 16 14 10 11 8 1 357 358 357 3 9 10 329 204 209 215 210 202 198 198 202 202 211 207 206 206 201
44 355 7 19 19 1 327 355 333 319 336 292 63 289 39 13 17 18 7 6 2 5 2 359 359 359 0 1 5 1 226 211 211 212 203 200 197 198 208 212 213 212 204 209
319 360 13 6 341 348 300 308 294 285 276 265 7 138 355 16 10 7 2 359 1 1 1 360 2 359 360 358 359 3 359 208 211 206 213 205 199 204 202 208 214 213 206 208
301 41 34 9 343 323 309 295 291 250 228 204 141 172 39 20 6 3 356 353 358 356 358 1 6 5 8 4 1 8 8 302 214 212 216 210 206 196 200 205 208 212 209 206
4 26 16 355 347 336 333 307 304 206 181 229 108 72 47 27 12 12 357 351 352 355 357 357 4 8 9 8 4 2 10 5 311 217 218 203 210 203 205 199 206 214 212 212
338 332 8 332 346 324 319 322 274 283 225 133 60 97 72 42 26 12 4 357 355 357 358 0 358 5 6 7 7 0 3 6 350 229 223 228 204 209 226 211 207 215 215 215
339 313 336 340 324 341 320 335 288 264 242 108 65 359 60 21 19 8 1 359 355 353 357 359 2 6 7 6 7 4 2 1 5 328 236 219 219 210 215 223 217 213 212 217
316 302 331 329 332 344 327 333 344 331 297 101 70 65 6 16 7 359 357 356 357 359 358 1 4 2 5 7 10 8 5 2 3 354 297 244 239 212 221 229 228 224 219 216
283 211 331 352 12 6 353 353 347 105 5 37 79 45 355 20 359 353 350 353 358 4 359 358 5 7 358 2 12 12 9 7 2 1 338 271 248 237 228 222 231 230 224 223
287 251 323 309 54 9 20 2 350 15 5 58 91 228 351 343 338 342 344 349 347 355 0 359 2 6 10 2 11 12 14 11 12 7 348 303 257 233 235 232 230 236 230 225
323 323 334 348 262 27 25 15 12 28 66 6 62 304 333 333 330 338 340 345 351 351 354 359 1 6 7 7 4 18 17 16 15 12 355 339 293 233 243 243 236 234 232 230
19 341 179 189 335 39 18 22 25 63 55 196 124 274 308 338 335 337 340 348 346 350 353 356 1 8 5 5 7 13 19 20 19 17 7 351 332 277 231 249 239 244 236 235
75 344 137 109 98 49 134 45 41 49 252 93 280 288 291 308 309 331 344 342 342 342 353 357 1 2 4 5 2 11 21 18 19 19 14 0 347 315 263 243 248 238 242 237
341 294 172 202 191 326 72 85 64 49 12 352 295 292 256 320 334 339 348 346 345 348 349 352 356 358 360 5 1 5 16 16 15 17 16 9 354 340 301 258 246 259 240 243
19 10 324 336 287 124 28 277 121 65 89 165 13 266 305 321 335 340 342 345 345 352 357 354 351 352 354 357 3 7 7 10 14 15 16 15 9 355 337 287 250 240 253 242
73 339 298 296 137 60 237 153 147 110 45 330 279 303 323 322 336 341 346 344 347 351 355 356 354 350 354 357 360 2 4 5 10 13 14 16 14 3 351 316 265 247 242 247
120 104 310 69 312 158 57 166 189 180 250 315 273 307 335 339 330 337 349 349 346 351 355 352 356 355 351 355 357 357 1 3 4 7 12 13 10 5 358 346 289 251 249 244
39 69 109 347 321 236 241 220 355 151 301 334 303 310 318 341 341 289 340 347 349 354 351 352 347 349 351 353 357 354 354 359 2 359 3 14 14 4 7 7 349 255 249 238
325 349 132 304 227 291 248 284 74 78 242 291 303 317 336 318 323 332 342 346 351 350 354 349 352 351 353 354 351 352 353 356 356 359 352 4 8 10 16 19 24 355 232 210
293 64 314 320 24 318 34 187 141 226 272 305 331 342 335 345 338 343 345 348 348 349 346 350 349 347 346 347 350 348 352 347 353 353 352 355 2 5 9 20 31 40 53 187
349 193 213 170 227 262 199 205 207 247 335 343 335 353 341 339 346 342 352 351 351 345 346 345 345 346 347 349 354 353 352 346 346 345 351 347 354 360 359 14 27 36 44 54
312 309 108 296 350 339 335 286 269 318 341 338 344 345 346 341 343 347 349 346 344 344 344 345 348 351 350 354 354 356 350 354 355 351 344 350 352 354 6 7 21 30 36 45
255 302 276 243 279 268 288 263 309 326 339 337 343 340 339 337 339 342 342 339 341 339 343 345 348 344 343 348 343 349 346 348 350 351 350 349 354 359 358 7 10 22 32 36
218 211 196 257 297 305 247 276 334 341 342 343 336 332 335 336 346 344 341 340 336 338 341 342 340 337 339 338 335 338 344 350 349 342 350 353 355 1 2 5 11 19 28 30
Height
1506 1512 1521 1514 1509 1507 1507 1507 1506 1502 1500 1497 1494 1493 1498 1502 1498 1498 1495 1492 1490 1485 1480 1472 1461 1453 1446 1440 1442 1453 1451 1447 1451 1457 1460 1462 1468 1474 1480 1483 1488 1491 1495 1505
1516 1523 1520 1513 1515 1513 1510 1509 1513 1502 1499 1497 1497 1498 1502 1507 1511 1509 1504 1497 1492 1483 1474 1468 1459 1452 1447 1443 1438 1441 1449 1449 1442 1447 1451 1453 1457 1464 1473 1480 1485 1489 1493 1497
1523 1531 1521 1517 1523 1522 1520 1521 1519 1513 1500 1494 1493 1500 1506 1511 1511 1509 1508 1506 1498 1492 1485 1476 1464 1456 1448 1442 1440 1438 1439 1444 1449 1442 1447 1454 1457 1464 1469 1473 1478 1482 1487 1494
1529 1530 1524 1524 1530 1532 1528 1518 1517 1510 1509 1510 1496 1515 1514 1515 1512 1512 1511 1507 1502 1495 1491 1485 1474 1461 1451 1445 1442 1437 1435 1440 1444 1448 1448 1442 1445 1451 1457 1465 1473 1479 1483 1487
1543 1535 1529 1531 1537 1535 1528 1520 1513 1507 1505 1504 1497 1509 1530 1519 1516 1515 1516 1515 1508 1501 1495 1490 1479 1470 1459 1450 1442 1436 1433 1434 1439 1442 1446 1443 1439 1444 1449 1458 1469 1475 1479 1482
1542 1538 1541 1544 1538 1534 1527 1511 1503 1496 1497 1505 1498 1500 1532 1531 1533 1527 1523 1518 1512 1504 1497 1491 1483 1472 1460 1451 1442 1436 1433 1432 1432 1435 1438 1440 1441 1439 1444 1453 1462 1470 1475 1479
1543 1539 1543 1540 1537 1527 1524 1511 1507 1498 1495 1486 1502 1515 1536 1540 1537 1534 1529 1522 1515 1507 1497 1488 1480 1470 1459 1451 1444 1437 1433 1430 1428 1429 1435 1435 1441 1443 1438 1444 1449 1461 1467 1472
1554 1541 1543 1542 1541 1534 1525 1519 1512 1501 1483 1493 1511 1533 1540 1542 1540 1538 1534 1526 1516 1504 1496 1488 1482 1473 1464 1454 1447 1439 1433 1429 1426 1426 1428 1429 1434 1439 1444 1442 1440 1445 1453 1462
1566 1553 1546 1545 1539 1537 1527 1517 1508 1505 1489 1494 1527 1535 1525 1535 1535 1536 1533 1526 1516 1505 1496 1487 1481 1475 1467 1460 1452 1443 1435 1429 1426 1424 1424 1427 1431 1435 1437 1442 1442 1446 1450 1457
1566 1562 1549 1542 1536 1535 1525 1518 1510 1500 1494 1514 1536 1546 1547 1541 1539 1537 1534 1529 1520 1508 1497 1488 1481 1476 1468 1461 1453 1446 1438 1431 1424 1422 1421 1421 1425 1429 1433 1436 1438 1441 1446 1454
1563 1565 1556 1545 1551 1544 1529 1524 1519 1515 1513 1508 1542 1553 1551 1546 1545 1540 1537 1531 1523 1514 1505 1498 1490 1481 1476 1467 1458 1449 1440 1431 1421 1416 1414 1416 1418 1420 1426 1430 1433 1437 1442 1446
1563 1563 1561 1556 1549 1546 1544 1538 1524 1523 1532 1526 1542 1567 1552 1548 1544 1539 1534 1528 1521 1516 1511 1504 1499 1491 1482 1473 1462 1452 1441 1431 1423 1416 1412 1410 1411 1416 1420 1424 1427 1432 1435 1439
1564 1567 1570 1552 1552 1549 1551 1546 1538 1533 1549 1564 1555 1572 1551 1548 1542 1536 1531 1524 1517 1511 1506 1501 1493 1485 1478 1470 1461 1453 1446 1435 1424 1417 1415 1411 1411 1413 1414 1417 1421 1424 1427 1431
1562 1568 1575 1584 1570 1565 1572 1555 1551 1555 1562 1572 1566 1562 1553 1544 1540 1533 1528 1523 1518 1511 1503 1495 1490 1484 1477 1474 1466 1457 1445 1434 1425 1418 1413 1409 1405 1403 1403 1401 1413 1417 1419 1423
1564 1568 1566 1564 1565 1563 1568 1563 1560 1567 1580 1578 1571 1569 1555 1546 1541 1535 1529 1523 1517 1510 1505 1498 1489 1484 1481 1476 1467 1458 1441 1433 1424 1416 1410 1406 1402 1399 1399 1401 1402 1408 1412 1414
1564 1566 1563 1560 1565 1564 1563 1563 1564 1562 1574 1573 1568 1563 1550 1545 1540 1534 1528 1522 1515 1509 1501 1493 1485 1480 1474 1464 1464 1450 1438 1433 1426 1417 1410 1406 1399 1395 1393 1392 1398 1400 1402 1406
1564 1565 1563 1556 1564 1565 1573 1570 1568 1565 1566 1573 1570 1561 1550 1545 1538 1532 1527 1523 1516 1510 1504 1497 1491 1487 1482 1477 1463 1451 1443 1438 1431 1422 1413 1406 1400 1395 1391 1390 1392 1394 1395 1398
1562 1562 1560 1558 1563 1590 1566 1563 1563 1566 1562 1559 1559 1554 1549 1544 1539 1534 1529 1522 1516 1510 1503 1495 1488 1482 1476 1466 1457 1452 1449 1441 1433 1428 1419 1407 1400 1396 1390 1385 1384 1384 1386 1386
1560 1561 1567 1584 1568 1563 1560 1560 1563 1563 1567 1556 1555 1550 1546 1541 1536 1532 1527 1522 1516 1510 1504 1498 1490 1483 1476 1469 1463 1457 1450 1445 1439 1431 1424 1415 1409 1402 1395 1385 1379 1377 1377 1380
1560 1561 1569 1567 1573 1585 1563 1557 1555 1555 1565 1553 1552 1548 1543 1539 1537 1530 1523 1518 1513 1509 1504 1497 1491 1484 1477 1470 1464 1459 1454 1449 1441 1436 1430 1420 1412 1412 1403 1389 1378 1373 1374 1376
1563 1565 1573 1569 1592 1574 1556 1555 1554 1563 1568 1551 1549 1545 1542 1538 1535 1528 1522 1517 1512 1507 1502 1497 1490 1483 1477 1472 1465 1460 1457 1452 1446 1438 1434 1427 1420 1409 1402 1391 1377 1369 1369 1367
1566 1583 1583 1570 1593 1583 1554 1554 1560 1556 1549 1547 1545 1543 1539 1535 1531 1526 1522 1517 1511 1505 1500 1495 1490 1485 1479 1475 1467 1461 1454 1452 1447 1442 1435 1430 1425 1420 1412 1398 1381 1369 1366 1365
1572 1570 1574 1570 1565 1552 1551 1551 1550 1548 1547 1545 1542 1539 1536 1532 1528 1524 1520 1516 1511 1506 1500 1495 1489 1484 1479 1473 1467 1462 1456 1451 1447 1442 1438 1435 1429 1424 1416 1403 1388 1379 1372 1368
1567 1562 1562 1561 1556 1556 1556 1553 1550 1547 1545 1543 1539 1536 1532 1529 1525 1521 1517 1512 1508 1504 1498 1492 1487 1482 1477 1472 1468 1463 1457 1451 1447 1442 1441 1438 1432 1420 1409 1405 1397 1390 1386 1378
1565 1561 1560 1558 1553 1550 1550 1548 1546 1545 1543 1540 1536 1534 1530 1526 1522 1518 1514 1509 1504 1500 1495 1490 1485 1480 1476 1471 1466 1462 1457 1453 1448 1443 1440 1436 1431 1425 1418 1409 1402 1399 1388 1379
1559 1558 1561 1557 1549 1547 1544 1544 1544 1542 1540 1537 1534 1530 1527 1523 1519 1516 1512 1507 1502 1497 1492 1488 1483 1478 1473 1468 1463 1459 1455 1452 1448 1443 1441 1435 1431 1427 1423 1413 1406 1402 1396 1392